Location: Asheville, NC
(35.6000°N, 82.5500°W)
Time: 03:13:28
(UTC-04:00)

Vanguard 2 Rocket - Visible Passes

Search period start: 19 October 2017 00:00
Search period end: 29 October 2017 00:00
Orbit: 555 x 3327 km, 32.9° (Epoch: 18 October)

Date Brightness Start Highest point End Pass type
(mag) Time Alt. Az. Time Alt. Az. Time Alt. Az.
19 Oct 9.9 19:11:09 10° W 19:22:43 46° SSW 19:40:10 10° SE visible
19 Oct 10.8 21:28:32 10° WSW 21:39:19 21° SW 21:52:03 10° S visible
20 Oct 10.6 20:26:55 10° W 20:38:12 28° SSW 20:52:59 10° SSE visible
21 Oct 10.3 19:26:26 10° W 19:37:12 35° SSW 19:52:48 10° SSE visible
21 Oct 11.1 21:48:17 10° WSW 21:53:45 12° SW 21:59:39 10° SSW visible
22 Oct 10.9 20:43:55 10° WSW 20:52:41 18° SW 21:03:22 10° S visible
23 Oct 10.7 19:42:24 10° WSW 19:51:46 24° SSW 20:04:24 10° SSE visible
24 Oct 10.4 18:42:05 10° W 18:51:01 30° SSW 19:04:17 10° SSE visible
25 Oct 11.0 20:00:10 10° WSW 20:06:26 14° SSW 20:13:57 10° S visible
26 Oct 10.8 18:58:26 10° WSW 19:05:44 19° SSW 19:15:29 10° S visible
28 Oct 11.1 19:18:52 10° SW 19:20:35 10° SSW 19:22:23 10° SSW visible
